Lid_Strength_Index
8 7 7 8 8 8 8 8 10 9 8 7 6 5 4 4 4 4 3 3 3 3 3 2 2 2 1 1 1 1 1 1 1 1 1 1 1 1 1 1 1 2 2 2
9 7 7 8 8 7 7 7 8 8 8 5 4 4 4 4 4 4 4 3 3 3 3 2 2 2 1 1 1 0 1 1 1 1 1 1 1 1 1 2 1 2 2 1
12 8 8 11 8 7 7 7 7 9 7 5 5 5 4 4 4 4 4 3 4 3 3 2 2 1 1 1 0 0 1 1 1 1 1 1 1 1 1 1 1 2 2 2
12 10 15 9 6 6 7 7 6 6 6 5 5 4 4 3 4 4 4 4 3 3 3 2 2 1 0 1 0 1 1 1 1 1 1 1 1 1 1 1 2 2 1 2
13 13 10 8 7 7 8 8 6 6 5 5 4 4 5 4 3 4 4 3 3 2 2 1 1 1 1 1 0 1 1 1 1 1 1 1 1 1 1 1 1 1 1 1
11 14 15 9 6 5 5 10 6 6 6 6 5 8 8 4 4 4 4 3 2 2 2 2 1 -0 1 1 1 2 1 1 0 1 1 1 1 1 0 1 1 1 1 1
11 12 10 6 5 4 11 10 6 5 5 5 6 6 4 3 3 3 3 2 2 1 1 1 0 1 2 1 1 0 0 0 0 0 1 1 1 0 1 1 1 1 1 1
11 12 13 5 6 9 7 5 5 4 4 5 4 4 3 3 3 3 3 2 3 3 2 1 1 1 2 1 -0 0 -0 0 1 1 1 1 0 1 1 1 2 2 2 2
9 9 5 4 5 4 4 4 4 4 4 4 4 4 3 3 3 3 3 3 2 3 3 2 2 2 2 1 0 0 1 1 1 1 1 1 1 1 2 1 2 2 3 3
8 6 6 4 4 3 3 4 3 3 3 3 4 3 4 3 3 3 3 3 3 2 3 3 2 2 2 1 1 1 1 1 1 1 1 1 1 1 2 1 2 2 3 3
7 6 5 4 4 3 3 3 3 3 3 4 4 5 4 4 3 3 3 2 2 2 3 3 2 2 1 1 0 1 1 1 1 1 1 1 1 1 1 1 1 2 2 2
9 6 6 5 4 3 4 4 4 4 4 4 5 5 5 4 4 3 3 2 2 2 2 1 1 1 1 0 0 1 2 1 1 1 1 1 1 1 8 8 9 9 9 4
5 4 4 4 4 4 5 5 5 5 5 6 5 4 4 4 3 3 2 2 2 2 1 1 1 1 1 0 0 1 1 1 1 2 1 2 2 2 2 6 9 9 8 8
3 4 6 5 6 5 5 5 5 5 5 4 4 4 3 3 2 2 2 1 1 1 1 1 1 1 1 0 1 1 1 3 1 1 1 1 1 2 2 2 3 3 8 7
6 5 6 5 5 6 5 5 6 6 5 4 3 3 3 2 2 2 1 1 1 1 1 1 1 1 0 0 1 1 2 1 1 1 1 1 1 1 1 2 3 2 6 8
6 6 6 6 6 5 5 5 6 5 4 3 3 3 2 2 2 2 1 1 2 2 2 1 1 1 0 1 1 1 1 3 3 1 1 1 1 1 2 2 3 3 4 6
7 7 7 6 6 6 5 5 4 4 3 3 2 2 2 2 2 2 2 1 1 2 1 1 1 1 0 0 1 1 1 1 3 1 1 2 2 2 2 2 3 3 4 6
5 5 5 5 5 5 4 4 3 3 2 2 2 2 2 2 3 2 2 2 2 2 1 1 0 1 1 0 1 1 1 1 1 1 1 2 2 2 2 2 2 3 6 8
4 4 4 4 4 4 4 3 2 2 2 2 2 3 2 2 2 2 2 2 2 3 2 1 2 2 1 1 1 1 1 1 1 1 2 3 2 2 2 3 4 6 6 6
4 4 4 4 3 2 3 2 2 2 2 2 2 3 3 3 2 3 2 3 2 2 1 1 1 1 1 1 4 1 1 1 1 1 2 2 2 3 4 5 5 5 5 5
3 3 3 3 3 2 2 2 2 3 2 2 3 3 3 2 2 2 3 4 2 1 1 1 1 1 1 1 1 1 1 1 2 2 2 2 2 3 2 3 5 5 5 5
3 3 3 3 3 3 2 2 2 2 3 3 2 3 3 3 3 3 2 3 2 4 1 1 1 3 2 6 0 1 1 1 1 1 2 2 2 2 3 4 4 4 4 5
3 3 3 3 3 4 3 2 2 3 3 3 3 3 4 3 2 3 4 2 1 2 1 1 4 8 9 1 1 1 1 2 2 2 2 2 1 2 2 3 4 4 5 5
4 4 4 4 4 4 5 4 4 5 5 4 4 3 4 3 3 1 1 3 5 3 1 1 4 9 10 1 1 1 1 1 2 2 1 4 1 3 2 3 4 5 4 3
6 6 6 6 7 6 6 5 5 5 5 4 4 3 3 1 2 2 1 1 5 3 1 7 9 10 1 1 1 1 1 1 3 1 1 2 2 4 4 3 3 2 3 4
6 7 7 7 7 7 6 6 6 6 5 5 4 2 2 1 1 1 1 2 1 3 1 1 1 1 0 0 1 1 1 1 1 1 2 2 3 3 3 2 3 4 4 3
7 8 7 7 6 6 6 6 6 5 4 4 3 2 1 1 1 2 2 1 1 1 1 1 1 2 1 1 1 1 1 2 4 2 2 3 3 2 3 4 3 3 3 3